Change the Weather History Date:

Thursday, January 9, 2014

  Actual Average (KMSP) Record (KMSP)
Temperature  
Mean Temperature -4 °F 15 °F  
Max Temperature 17 °F 23 °F 49 °F (2002)
Min Temperature -24 °F 7 °F -32 °F (1977)
Degree Days  
Heating Degree Days 68 50  
Month to date heating degree days 444  
Since 1 July heating degree days 3467  
Cooling Degree Days 0 0  
Month to date cooling degree days 0  
Year to date cooling degree days 0  
Moisture  
Dew Point -2 °F    
Average Humidity 74    
Maximum Humidity 93    
Minimum Humidity 59    
Precipitation  
Precipitation 0.00 in 0.03 in 0.31 in (1924)
Month to date precipitation 0.29  
Year to date precipitation 0.29  
Snow  
Snow 0.00 in 0.40 in 3.80 in (1924)
Month to date snowfall 3.5  
Since 1 July snowfall 25.3  
Snow Depth -    
Sea Level Pressure  
Sea Level Pressure 30.19 in    
Wind  
Wind Speed 6 mph (SE)    
Max Wind Speed 17 mph    
Max Gust Speed 21 mph    
Visibility 10 miles    
Events      
T = Trace of Precipitation, MM = Missing Value Source: NWS Daily Summary

Daily Weather History Graph

Daily Weather History Graph

Search for Another Location

Airport or City:

Trip Planner

Search our weather history database for the weather conditions in past years. The results will help you decide how hot, cold, wet, or windy it might be!

Date:

Astronomy

Jan. 09, 2014 Rise Set
Actual Time 7:49 AM CST 4:47 PM CST
Civil Twilight 7:15 AM CST 5:20 PM CST
Nautical Twilight 6:38 AM CST 5:57 PM CST
Astronomical Twilight 6:03 AM CST 6:33 PM CST
Moon 12:20 PM CST (1/9) 1:50 AM CST (1/9)
Length of Visible Light 10h 04m
Length of Day
8h 58m
Waxing Gibbous, 66% of the Moon is Illuminated
Jan 9
Waxing Gibbous
Jan 15
Full
Jan 23
Last Quarter
Jan 30
New
Feb 6
First Quarter

Hourly Weather History & Observations

Time (CST) Temp. Windchill Dew Point Humidity Pressure Visibility Wind Dir Wind Speed Gust Speed Precip Events Conditions
12:15 AM -22.4 °F - -28.3 °F 74% 30.45 in 10.0 mi Calm Calm - N/A   Clear
12:35 AM -22.7 °F - -28.3 °F 75% 30.44 in 10.0 mi Calm Calm - N/A   Clear
12:55 AM -21.6 °F -32.6 °F -27.4 °F 75% 30.43 in 10.0 mi ESE 3.5 mph - N/A   Clear
1:15 AM -23.1 °F - -28.8 °F 74% 30.43 in 10.0 mi Calm Calm - N/A   Clear
1:35 AM -21.3 °F - -27.4 °F 73% 30.44 in 10.0 mi Calm Calm - N/A   Clear
1:55 AM -23.4 °F - -29.2 °F 74% 30.43 in 10.0 mi Calm Calm - N/A   Clear
2:15 AM -23.8 °F -37.7 °F -29.6 °F 74% 30.42 in 10.0 mi ESE 4.6 mph - N/A   Clear
2:35 AM -24.0 °F - -29.9 °F 74% 30.42 in 10.0 mi Calm Calm - N/A   Clear
2:55 AM -22.9 °F -36.6 °F -28.8 °F 74% 30.41 in 10.0 mi East 4.6 mph - N/A   Clear
3:15 AM -14.6 °F -27.0 °F -19.3 °F 79% 30.40 in 10.0 mi ESE 4.6 mph - N/A   Scattered Clouds
3:35 AM -10.7 °F -24.2 °F -15.2 °F 80% 30.38 in 10.0 mi ESE 5.8 mph - N/A   Mostly Cloudy
3:55 AM -8.1 °F -19.4 °F -12.6 °F 81% 30.36 in 10.0 mi ESE 4.6 mph - N/A   Overcast
4:15 AM -5.8 °F -18.4 °F -10.3 °F 81% 30.36 in 10.0 mi ESE 5.8 mph - N/A   Overcast
4:35 AM -5.4 °F -16.2 °F -9.9 °F 81% 30.35 in 10.0 mi SE 4.6 mph - N/A   Overcast
4:55 AM -4.9 °F -15.6 °F -9.4 °F 81% 30.35 in 10.0 mi SSE 4.6 mph - N/A   Overcast
5:15 AM -4.0 °F -19.0 °F -8.9 °F 80% 30.35 in 10.0 mi SSE 8.1 mph - N/A   Overcast
5:35 AM -2.9 °F -17.7 °F -8.5 °F 77% 30.35 in 10.0 mi SSE 8.1 mph - N/A   Overcast
5:55 AM -2.2 °F -14.2 °F -8.3 °F 75% 30.34 in 10.0 mi SE 5.8 mph - N/A   Overcast
6:15 AM -1.1 °F -12.9 °F -7.6 °F 74% 30.33 in 10.0 mi SE 5.8 mph - N/A   Overcast
6:35 AM -0.4 °F -15.7 °F -7.4 °F 72% 30.31 in 10.0 mi SE 9.2 mph - N/A   Overcast
6:55 AM -0.4 °F -17.6 °F -7.6 °F 72% 30.30 in 10.0 mi SE 11.5 mph - N/A   Overcast
7:15 AM -0.0 °F -16.3 °F -7.2 °F 72% 30.29 in 10.0 mi SE 10.4 mph - N/A   Overcast
7:35 AM 0.3 °F -15.8 °F -7.2 °F 70% 30.28 in 10.0 mi SE 10.4 mph - N/A   Overcast
7:55 AM 0.5 °F -13.6 °F -6.9 °F 71% 30.28 in 10.0 mi SE 8.1 mph - N/A   Overcast
8:15 AM 1.2 °F -13.7 °F -6.3 °F 71% 30.28 in 10.0 mi SSE 9.2 mph - N/A   Overcast
8:35 AM 1.8 °F -10.8 °F -6.0 °F 70% 30.28 in 10.0 mi SSE 6.9 mph - N/A   Overcast
8:55 AM 2.3 °F -12.4 °F -5.8 °F 69% 30.28 in 10.0 mi SE 9.2 mph - N/A   Overcast
9:15 AM 3.2 °F -10.3 °F -5.1 °F 68% 30.28 in 10.0 mi ESE 8.1 mph - N/A   Overcast
9:35 AM 4.1 °F -11.1 °F -4.2 °F 69% 30.26 in 10.0 mi SE 10.4 mph - N/A   Overcast
9:55 AM 4.8 °F -10.2 °F -4.2 °F 66% 30.25 in 10.0 mi SE 10.4 mph 18.4 mph N/A   Overcast
10:15 AM 5.0 °F -11.6 °F -4.2 °F 66% 30.25 in 10.0 mi SSE 12.7 mph - N/A   Overcast
10:35 AM 5.9 °F -8.0 °F -3.8 °F 64% 30.24 in 10.0 mi SSE 9.2 mph - N/A   Scattered Clouds
10:55 AM 7.9 °F -8.0 °F -2.7 °F 62% 30.22 in 10.0 mi SSE 12.7 mph - N/A   Clear
11:15 AM 9.1 °F -6.4 °F -2.0 °F 61% 30.21 in 10.0 mi SSE 12.7 mph 19.6 mph N/A   Clear
11:35 AM 9.5 °F -5.9 °F -1.3 °F 62% 30.19 in 10.0 mi SSE 12.7 mph 18.4 mph N/A   Clear
11:55 AM 10.9 °F -1.8 °F -0.4 °F 60% 30.18 in 10.0 mi SSE 9.2 mph - N/A   Clear
12:15 PM 12.2 °F -1.8 °F 0.5 °F 60% 30.17 in 10.0 mi SSE 11.5 mph - N/A   Clear
12:35 PM 13.1 °F 0.1 °F 1.2 °F 59% 30.16 in 10.0 mi SSE 10.4 mph - N/A   Clear
12:55 PM 14.5 °F 0.5 °F 3.4 °F 61% 30.15 in 10.0 mi SSE 12.7 mph - N/A   Clear
1:15 PM 14.9 °F 0.3 °F 3.9 °F 62% 30.13 in 10.0 mi SSE 13.8 mph - N/A   Clear
1:35 PM 14.9 °F 0.9 °F 4.8 °F 64% 30.13 in 10.0 mi South 12.7 mph - N/A   Clear
1:55 PM 15.1 °F 0.5 °F 5.2 °F 65% 30.12 in 10.0 mi SSE 13.8 mph - N/A   Scattered Clouds
2:35 PM 16.2 °F 0.3 °F 7.2 °F 68% 30.11 in 10.0 mi SSE 17.3 mph 20.7 mph N/A   Overcast
2:55 PM 16.3 °F 3.4 °F 6.3 °F 65% 30.10 in 10.0 mi SE 11.5 mph - N/A   Overcast
3:15 PM 15.4 °F 2.3 °F 5.9 °F 66% 30.10 in 10.0 mi SE 11.5 mph - N/A   Overcast
3:35 PM 15.4 °F 4.6 °F 5.9 °F 66% 30.09 in 10.0 mi SE 8.1 mph - N/A   Overcast
3:55 PM 15.3 °F 2.8 °F 5.9 °F 67% 30.07 in 10.0 mi SE 10.4 mph 16.1 mph N/A   Scattered Clouds
4:15 PM 15.6 °F 3.2 °F 6.4 °F 67% 30.07 in 10.0 mi SE 10.4 mph 16.1 mph N/A   Clear
5:15 PM 16.5 °F 3.0 °F 9.0 °F 72% 30.04 in 10.0 mi SE 12.7 mph - N/A   Clear
5:35 PM 16.3 °F 4.9 °F 8.6 °F 72% 30.03 in 10.0 mi SSE 9.2 mph - N/A   Clear
5:55 PM 16.5 °F 3.6 °F 8.6 °F 71% 30.02 in 10.0 mi SE 11.5 mph 18.4 mph N/A   Clear
6:15 PM 16.2 °F 4.7 °F 8.8 °F 73% 30.02 in 10.0 mi SE 9.2 mph - N/A   Clear
6:35 PM 15.8 °F 2.1 °F 8.4 °F 73% 30.01 in 10.0 mi SE 12.7 mph 19.6 mph N/A   Clear
6:55 PM 15.6 °F 3.2 °F 8.6 °F 74% 30.01 in 10.0 mi SSE 10.4 mph - N/A   Clear
7:15 PM 15.3 °F 3.5 °F 8.8 °F 76% 30.00 in 10.0 mi SE 9.2 mph - N/A   Clear
7:35 PM 15.1 °F 3.3 °F 9.9 °F 80% 30.00 in 10.0 mi SSE 9.2 mph - N/A   Clear
7:55 PM 14.9 °F 2.3 °F 10.4 °F 82% 30.00 in 10.0 mi SSE 10.4 mph - N/A   Clear
8:15 PM 14.9 °F 5.0 °F 11.1 °F 85% 30.00 in 10.0 mi SSE 6.9 mph - N/A   Clear
8:35 PM 14.9 °F 4.0 °F 11.5 °F 86% 29.99 in 10.0 mi SSE 8.1 mph - N/A   Scattered Clouds
8:55 PM 14.9 °F 2.3 °F 12.4 °F 90% 29.99 in 10.0 mi SE 10.4 mph - N/A   Mostly Cloudy
9:15 PM 15.4 °F 3.8 °F 13.1 °F 90% 29.98 in 10.0 mi SE 9.2 mph - N/A   Overcast
9:35 PM 16.3 °F 4.1 °F 14.5 °F 93% 29.98 in 10.0 mi SE 10.4 mph - N/A   Overcast
9:55 PM 16.7 °F 5.3 °F 14.9 °F 93% 29.97 in 7.0 mi SE 9.2 mph - N/A   Overcast
10:15 PM 16.7 °F 5.3 °F 14.9 °F 93% 29.97 in 7.0 mi SE 9.2 mph - N/A   Overcast
10:35 PM 16.9 °F 5.5 °F 15.3 °F 93% 29.96 in 7.0 mi SE 9.2 mph 16.1 mph N/A   Overcast
10:55 PM 16.7 °F 3.2 °F 15.1 °F 93% 29.97 in 7.0 mi SSE 12.7 mph 16.1 mph N/A   Overcast
11:15 PM 16.7 °F 7.2 °F 15.1 °F 93% 29.97 in 7.0 mi SSE 6.9 mph - N/A   Overcast
11:35 PM 17.2 °F 6.0 °F 15.4 °F 93% 29.95 in 7.0 mi SSE 9.2 mph - N/A   Overcast
11:55 PM 17.6 °F 6.4 °F 15.8 °F 93% 29.95 in 7.0 mi SSE 9.2 mph - N/A   Overcast